DW3835 Weather Reports


Display with metric or nautical units.
time (UTC)temp
F
wind
direction
speed
MPH
gust
MPH
rain 1hr
in
rain 24hr
in
rain mn
in
humidity
%
barometer
mb
20260902115210 59 59 0.0 0.0 0.00 0.00 0.00 87 1014.7
20260902114136 59 59 0.0 0.0 0.00 0.00 0.00 86 1014.7
20260902113132 59 59 0.0 0.0 0.00 0.00 0.00 86 1014.7
20260902112155 59 59 0.0 0.0 0.00 0.00 0.00 86 1014.7
20260902111206 59 59 0.0 0.0 0.00 0.00 0.00 86 1014.7
20260902110152 59 59 0.0 0.0 0.00 0.00 0.00 86 1014.8
20260902105202 59 59 0.0 0.0 0.00 0.00 0.00 86 1015.0
20260902104127 59 59 0.0 0.0 0.00 0.00 0.00 86 1015.0
20260902103133 60 59 0.0 0.0 0.00 0.00 0.00 86 1015.0
20260902102114 60 59 0.0 0.0 0.00 0.00 0.00 85 1014.9
20260902095911 60 59 0.0 0.0 0.00 0.00 0.00 85 1014.9
20260902094841 60 59 0.0 0.0 0.00 0.00 0.00 86 1015.0
20260902093822 60 59 0.0 0.0 0.00 0.00 0.00 86 1015.0
20260902091659 60 183 0.0 0.0 0.00 0.00 0.00 86 1015.0
20260902084437 60 183 0.0 0.0 0.00 0.00 0.00 85 1015.1
20260902083451 60 182 0.0 0.0 0.00 0.00 0.00 85 1015.2
20260902082424 60 189 0.0 0.0 0.00 0.00 0.00 85 1015.2
20260902072916 61 173 0.0 0.0 0.00 0.00 0.00 84 1015.1
20260902071924 61 185 0.0 0.0 0.00 0.00 0.00 84 1015.0
20260902070850 60 161 0.0 1.0 0.00 0.00 0.00 85 1015.1
20260902065826 60 123 0.0 0.0 0.00 0.00 0.00 85 1015.0
20260902064822 60 136 0.0 1.0 0.00 0.00 0.00 85 1014.9
20260902063756 60 139 0.0 0.0 0.00 0.00 0.00 84 1014.9
20260902062811 60 140 0.0 1.0 0.00 0.00 0.00 84 1014.8
20260902061812 60 88 0.0 0.0 0.00 0.00 0.00 84 1014.9
20260902060830 60 134 0.0 0.0 0.00 0.00 0.00 84 1014.9
20260902055837 60 202 0.0 0.0 0.00 0.00 0.00 84 1015.1
20260902054807 60 229 0.0 0.0 0.00 0.00 0.00 84 1015.1
20260902052710 61 132 0.0 0.0 0.00 0.00 0.00 83 1015.0
20260902051721 61 133 0.0 0.0 0.00 0.00 0.00 83 1015.1
20260902050741 61 174 0.0 1.0 0.00 0.00 0.00 82 1015.2
20260902045708 61 145 0.0 1.0 0.00 0.00 0.00 82 1015.3
20260902043600 62 159 0.0 1.0 0.00 0.00 0.00 80 1015.4
20260902042556 62 165 0.0 2.0 0.00 0.00 0.00 81 1015.3
20260902041522 62 155 0.0 3.0 0.00 0.00 0.00 80 1015.1
20260902040532 62 169 0.0 3.0 0.00 0.00 0.00 80 1015.0
20260902035530 63 166 0.0 1.0 0.00 0.00 0.00 79 1015.0
20260902034521 63 119 0.0 4.0 0.00 0.00 0.00 79 1014.9
20260902033446 63 59 0.0 1.0 0.00 0.00 0.00 79 1014.9
20260902031239 63 173 0.0 2.0 0.00 0.00 0.00 77 1014.7
20260902030222 63 150 0.0 0.0 0.00 0.00 0.00 76 1014.7
20260902025224 63 148 0.0 2.0 0.00 0.00 0.00 75 1014.6
20260902024220 63 159 0.0 2.0 0.00 0.00 0.00 74 1014.6
20260902023156 64 157 0.0 3.0 0.00 0.00 0.00 73 1014.6
20260902022214 64 156 0.0 3.0 0.00 0.00 0.00 72 1014.5
20260902021234 64 185 0.0 5.0 0.00 0.00 0.00 70 1014.5
20260902020208 64 181 0.0 5.0 0.00 0.00 0.00 69 1014.4
20260902015205 64 161 0.0 4.0 0.00 0.00 0.00 68 1014.2
20260902014150 65 148 0.0 4.0 0.00 0.00 0.00 69 1014.3
20260902013152 65 204 1.0 5.0 0.00 0.00 0.00 68 1014.3
20260902011023 65 173 0.0 3.0 0.00 0.00 0.00 67 1014.1
20260902004822 66 163 0.0 6.0 0.00 0.00 0.00 66 1014.0
20260902003805 66 195 1.0 6.0 0.00 0.00 0.00 66 1014.1
20260902002736 67 186 1.0 6.0 0.00 0.00 0.00 66 1013.9
20260902001702 67 154 1.0 6.0 0.00 0.00 0.00 67 1014.0
20260902000657 67 119 0.0 3.0 0.00 0.00 0.00 67 1014.0
20260901235632 67 196 0.0 3.0 0.00 0.00 0.00 67 1014.0
20260901234655 67 151 1.0 4.0 0.00 0.00 0.00 65 1014.0
20260901232559 69 146 1.0 6.0 0.00 0.00 0.00 61 1014.1
20260901231612 68 137 0.0 6.0 0.00 0.00 0.00 62 1014.1
20260901230618 68 154 1.0 5.0 0.00 0.00 0.00 61 1014.4
20260901225558 69 192 1.0 4.0 0.00 0.00 0.00 61 1014.4
20260901224600 69 180 1.0 4.0 0.00 0.00 0.00 60 1014.4
20260901223601 70 169 1.0 5.0 0.00 0.00 0.00 59 1014.3
20260901222605 70 73 1.0 5.0 0.00 0.00 0.00 59 1014.4
20260901221539 70 277 1.0 4.0 0.00 0.00 0.00 58 1014.4
20260901220514 69 169 1.0 4.0 0.00 0.00 0.00 59 1014.5
20260901214324 68 207 0.0 3.0 0.00 0.00 0.00 61 1014.7
20260901213328 68 202 1.0 4.0 0.00 0.00 0.00 62 1014.7
20260901212310 68 126 0.0 4.0 0.00 0.00 0.00 62 1014.7
20260901211328 68 180 0.0 4.0 0.00 0.00 0.00 63 1014.7
20260901210345 68 152 1.0 4.0 0.00 0.00 0.00 64 1014.7
20260901204220 69 106 1.0 5.0 0.00 0.00 0.00 62 1014.5
20260901203219 69 169 1.0 5.0 0.00 0.00 0.00 59 1014.6
20260901202205 69 215 1.0 8.0 0.00 0.00 0.00 60 1014.7
20260901201212 70 171 1.0 8.0 0.00 0.00 0.00 59 1014.7
20260901200223 70 186 1.0 4.0 0.00 0.00 0.00 61 1014.9
20260901194009 68 138 1.0 6.0 0.00 0.00 0.00 63 1015.0
20260901192952 68 159 0.0 2.0 0.00 0.00 0.00 62 1015.0
20260901190858 67 343 0.0 3.0 0.00 0.00 0.00 65 1015.2
20260901185920 66 161 0.0 3.0 0.00 0.00 0.00 65 1015.3
20260901184916 67 238 1.0 6.0 0.00 0.00 0.00 64 1015.2
20260901183939 67 134 1.0 6.0 0.00 0.00 0.00 64 1015.1
20260901181748 66 133 0.0 2.0 0.00 0.00 0.00 66 1015.1
20260901180730 66 145 0.0 4.0 0.00 0.00 0.00 67 1015.0
20260901175734 67 177 1.0 6.0 0.00 0.00 0.00 65 1015.1
20260901174719 67 175 2.0 8.0 0.00 0.00 0.00 65 1014.9
20260901173715 67 173 1.0 8.0 0.00 0.00 0.00 65 1014.7
20260901172648 66 148 1.0 6.0 0.00 0.00 0.00 67 1014.7
20260901171630 67 181 2.0 6.0 0.00 0.00 0.00 69 1014.7
20260901170614 65 177 1.0 5.0 0.00 0.00 0.00 71 1014.6
20260901165607 64 129 1.0 5.0 0.00 0.00 0.00 70 1014.5
20260901164538 64 164 1.0 5.0 0.00 0.00 0.00 77 1014.4
20260901162509 63 206 1.0 5.0 0.00 0.00 0.00 77 1014.4
20260901161456 63 153 2.0 5.0 0.00 0.00 0.00 77 1014.3
20260901160426 63 171 0.0 4.0 0.00 0.00 0.00 81 1014.3
20260901155442 62 160 0.0 4.0 0.00 0.00 0.00 81 1014.2
20260901154454 62 165 0.0 2.0 0.00 0.00 0.00 82 1014.0
20260901153456 61 124 0.0 3.0 0.00 0.00 0.00 83 1014.0
20260901150207 61 67 0.0 2.0 0.00 0.00 0.00 84 1013.8
20260901145141 61 135 0.0 3.0 0.00 0.00 0.00 84 1013.6
20260901144111 61 159 0.0 3.0 0.00 0.00 0.00 84 1013.5
20260901143119 61 188 0.0 1.0 0.00 0.00 0.00 84 1013.4
20260901142045 61 46 0.0 1.0 0.00 0.00 0.00 83 1013.3
20260901141057 60 152 0.0 1.0 0.00 0.00 0.00 83 1013.1
20260901140057 60 100 0.0 1.0 0.00 0.00 0.00 83 1012.9
20260901135031 60 119 0.0 0.0 0.00 0.00 0.00 84 1012.9
20260901134019 60 165 0.0 0.0 0.00 0.00 0.00 84 1012.9
20260901133018 60 184 0.0 0.0 0.00 0.00 0.00 84 1012.8
20260901132019 60 184 0.0 0.0 0.00 0.00 0.00 84 1012.7
20260901131028 60 197 0.0 0.0 0.00 0.00 0.00 84 1012.6
20260901124842 60 110 0.0 2.0 0.00 0.00 0.00 83 1012.6
20260901123901 60 130 0.0 0.0 0.00 0.00 0.00 83 1012.5
20260901122836 60 166 0.0 3.0 0.00 0.00 0.00 83 1012.4
20260901120706 60 155 0.0 1.0 0.00 0.00 0.00 84 1012.2
20260901115638 60 225 0.0 0.0 0.00 0.00 0.00 84 1012.2